Weather History for KSVH - March, 2013

Change the Weather History Date:

Sunday, March 3, 2013

  Actual Average Record
Temperature  
Mean Temperature 34 °F -  
Max Temperature 43 °F - - ()
Min Temperature 24 °F - - ()
Degree Days  
Heating Degree Days 32    
Moisture  
Dew Point 16 °F    
Average Humidity 51    
Maximum Humidity 68    
Minimum Humidity 35    
Precipitation  
Precipitation 0.00 in - - ()
Sea Level Pressure  
Sea Level Pressure 29.93 in    
Wind  
Wind Speed 6 mph (NW)    
Max Wind Speed 15 mph    
Max Gust Speed 23 mph    
Visibility 10 miles    
Events      
T = Trace of Precipitation, MM = Missing Value Source: NWS Daily Summary

Daily Weather History Graph

Daily Weather History Graph

Search for Another Location

Airport or City:

Trip Planner

Search our weather history database for the weather conditions in past years. The results will help you decide how hot, cold, wet, or windy it might be!

Date:

Astronomy

Mar. 03, 2013 Rise Set
Actual Time 6:50 AM EST 6:21 PM EST
Civil Twilight 6:25 AM EST 6:46 PM EST
Nautical Twilight 5:55 AM EST 7:16 PM EST
Astronomical Twilight 5:26 AM EST 7:45 PM EST
Moon No Moon Rise 10:17 AM EST (3/3)
Length of Visible Light 12h 21m
Length of Day
11h 30m
Waning Gibbous, 64% of the Moon is Illuminated
Mar 3
Waning Gibbous
Mar 4
Last Quarter
Mar 11
New
Mar 19
First Quarter
Mar 27
Full

Hourly Weather History & Observations

Time (EST) Temp. Windchill Dew Point Humidity Pressure Visibility Wind Dir Wind Speed Gust Speed Precip Events Conditions
12:15 AM 32.0 °F 25.6 °F 18.3 °F 57% 29.93 in 10.0 mi NNW 6.9 mph - N/A   Overcast
12:35 AM 31.8 °F 25.4 °F 17.6 °F 56% 29.93 in 10.0 mi NNW 6.9 mph - N/A   Overcast
12:55 AM 31.8 °F 26.2 °F 17.4 °F 55% 29.93 in 10.0 mi NNW 5.8 mph - N/A   Overcast
1:15 AM 31.6 °F 27.0 °F 17.4 °F 56% 29.93 in 10.0 mi NW 4.6 mph - N/A   Overcast
1:35 AM 30.9 °F 27.5 °F 18.7 °F 61% 29.92 in 10.0 mi NW 3.5 mph - N/A   Overcast
1:55 AM 30.6 °F 27.1 °F 18.5 °F 61% 29.93 in 10.0 mi NW 3.5 mph - N/A   Overcast
2:35 AM 29.7 °F 22.0 °F 16.5 °F 58% 29.92 in 10.0 mi North 8.1 mph - N/A   Scattered Clouds
2:55 AM 29.1 °F 22.1 °F 15.6 °F 57% 29.91 in 10.0 mi NNW 6.9 mph - N/A   Clear
3:15 AM 28.9 °F 21.9 °F 14.9 °F 56% 29.90 in 10.0 mi North 6.9 mph - N/A   Clear
3:35 AM 28.4 °F 22.2 °F 15.1 °F 57% 29.91 in 10.0 mi NNW 5.8 mph - N/A   Clear
3:55 AM 28.2 °F 23.1 °F 15.3 °F 58% 29.91 in 10.0 mi NNW 4.6 mph - N/A   Clear
4:15 AM 28.0 °F 24.2 °F 15.3 °F 59% 29.91 in 10.0 mi North 3.5 mph - N/A   Clear
4:35 AM 27.5 °F 23.6 °F 14.9 °F 59% 29.91 in 10.0 mi NNW 3.5 mph - N/A   Clear
4:55 AM 27.3 °F 23.4 °F 14.9 °F 60% 29.91 in 10.0 mi NNW 3.5 mph - N/A   Clear
5:15 AM 27.5 °F - 14.4 °F 58% 29.91 in 10.0 mi Calm Calm - N/A   Clear
5:35 AM 27.5 °F - 14.0 °F 57% 29.92 in 10.0 mi Calm Calm - N/A   Clear
5:55 AM 27.5 °F - 14.0 °F 57% 29.92 in 10.0 mi Calm Calm - N/A   Clear
6:15 AM 27.0 °F - 14.0 °F 58% 29.92 in 10.0 mi Calm Calm - N/A   Clear
6:35 AM 24.4 °F - 15.1 °F 68% 29.93 in 10.0 mi Calm Calm - N/A   Clear
6:55 AM 25.0 °F - 14.4 °F 64% 29.93 in 10.0 mi Calm Calm - N/A   Clear
7:15 AM 26.2 °F - 14.5 °F 61% 29.94 in 10.0 mi Calm Calm - N/A   Clear
7:35 AM 27.7 °F - 15.6 °F 61% 29.94 in 10.0 mi Calm Calm - N/A   Clear
7:55 AM 28.4 °F - 15.4 °F 58% 29.94 in 10.0 mi Calm Calm - N/A   Clear
8:15 AM 29.3 °F - 15.8 °F 57% 29.95 in 10.0 mi Calm Calm - N/A   Clear
8:35 AM 30.4 °F 24.5 °F 15.6 °F 54% 29.95 in 10.0 mi NNW 5.8 mph - N/A   Clear
8:55 AM 31.6 °F 27.0 °F 14.7 °F 50% 29.95 in 10.0 mi NW 4.6 mph - N/A   Clear
9:15 AM 32.0 °F 25.6 °F 14.5 °F 49% 29.95 in 10.0 mi NNW 6.9 mph - N/A   Clear
9:35 AM 33.1 °F 26.9 °F 16.0 °F 50% 29.95 in 10.0 mi WNW 6.9 mph - N/A   Clear
9:55 AM 34.2 °F 27.5 °F 16.7 °F 49% 29.95 in 10.0 mi WNW 8.1 mph - N/A   Clear
10:15 AM 33.1 °F 30.0 °F 14.7 °F 47% 29.95 in 10.0 mi NW 3.5 mph - N/A   Clear
10:35 AM 35.6 °F 29.2 °F 17.4 °F 48% 29.95 in 10.0 mi West 8.1 mph - N/A   Clear
10:55 AM 36.0 °F 32.1 °F 17.2 °F 47% 29.95 in 10.0 mi WNW 4.6 mph - N/A   Clear
11:15 AM 35.6 °F - 14.9 °F 43% 29.94 in 10.0 mi Calm Calm - N/A   Clear
11:35 AM 37.2 °F 31.2 °F 17.2 °F 44% 29.93 in 10.0 mi WSW 8.1 mph - N/A   Clear
11:55 AM 37.6 °F 35.1 °F 17.1 °F 43% 29.93 in 10.0 mi West 3.5 mph - N/A   Clear
12:15 PM 39.0 °F 32.8 °F 18.5 °F 44% 29.92 in 10.0 mi West 9.2 mph - N/A   Clear
12:35 PM 39.2 °F 32.5 °F 16.9 °F 40% 29.91 in 10.0 mi West 10.4 mph - N/A   Clear
12:55 PM 39.7 °F 34.9 °F 18.1 °F 42% 29.90 in 10.0 mi West 6.9 mph - N/A   Clear
1:15 PM 41.5 °F 35.0 °F 18.7 °F 40% 29.89 in 10.0 mi NW 11.5 mph 16.1 mph N/A   Clear
1:35 PM 41.2 °F 35.5 °F 18.1 °F 40% 29.89 in 10.0 mi WNW 9.2 mph - N/A   Clear
1:55 PM 43.3 °F 39.2 °F 18.7 °F 37% 29.88 in 10.0 mi WNW 6.9 mph 17.3 mph N/A   Clear
2:15 PM 43.0 °F 37.7 °F 17.6 °F 36% 29.88 in 10.0 mi WNW 9.2 mph - N/A   Clear
2:35 PM 43.5 °F 37.5 °F 18.7 °F 37% 29.88 in 10.0 mi West 11.5 mph 17.3 mph N/A   Clear
2:55 PM 42.4 °F 35.7 °F 16.9 °F 36% 29.88 in 10.0 mi West 12.7 mph 18.4 mph N/A   Clear
3:15 PM 43.3 °F 36.1 °F 17.6 °F 36% 29.88 in 10.0 mi West 15.0 mph 23.0 mph N/A   Clear
3:35 PM 42.3 °F 36.8 °F 16.2 °F 35% 29.88 in 10.0 mi West 9.2 mph - N/A   Clear
3:55 PM 42.1 °F 36.1 °F 17.2 °F 37% 29.88 in 10.0 mi WNW 10.4 mph - N/A   Clear
4:35 PM 41.4 °F 35.7 °F 16.9 °F 37% 29.89 in 10.0 mi WNW 9.2 mph - N/A   Clear
4:55 PM 39.2 °F 32.5 °F 15.4 °F 38% 29.90 in 10.0 mi WNW 10.4 mph - N/A   Clear
5:15 PM 39.4 °F 32.7 °F 16.2 °F 39% 29.91 in 10.0 mi WNW 10.4 mph - N/A   Clear
5:35 PM 38.3 °F 31.9 °F 15.8 °F 40% 29.92 in 10.0 mi WNW 9.2 mph - N/A   Clear
5:55 PM 37.0 °F 30.4 °F 15.4 °F 41% 29.92 in 10.0 mi NW 9.2 mph - N/A   Clear
6:15 PM 35.2 °F 27.6 °F 15.8 °F 45% 29.93 in 10.0 mi NW 10.4 mph - N/A   Clear
6:35 PM 33.8 °F 24.8 °F 16.0 °F 48% 29.94 in 10.0 mi WNW 12.7 mph 19.6 mph N/A   Clear
6:55 PM 33.3 °F 25.7 °F 15.6 °F 48% 29.94 in 10.0 mi WNW 9.2 mph - N/A   Clear
7:35 PM 32.0 °F 24.8 °F 16.2 °F 52% 29.95 in 10.0 mi WNW 8.1 mph - N/A   Clear
7:55 PM 31.6 °F 24.4 °F 16.7 °F 54% 29.96 in 10.0 mi WNW 8.1 mph - N/A   Clear
8:15 PM 30.9 °F 25.2 °F 16.9 °F 56% 29.96 in 10.0 mi WNW 5.8 mph - N/A   Clear
8:35 PM 30.7 °F 24.1 °F 17.4 °F 58% 29.96 in 10.0 mi WNW 6.9 mph - N/A   Scattered Clouds
8:55 PM 30.7 °F 24.9 °F 17.4 °F 58% 29.97 in 10.0 mi WNW 5.8 mph - N/A   Scattered Clouds
9:15 PM 30.4 °F 24.5 °F 17.1 °F 58% 29.97 in 10.0 mi WNW 5.8 mph - N/A   Scattered Clouds
9:35 PM 30.4 °F 23.6 °F 17.2 °F 58% 29.98 in 10.0 mi WNW 6.9 mph - N/A   Scattered Clouds
9:55 PM 30.2 °F 25.4 °F 16.5 °F 57% 29.98 in 10.0 mi WNW 4.6 mph - N/A   Clear
10:15 PM 30.2 °F 24.3 °F 16.3 °F 56% 29.99 in 10.0 mi WNW 5.8 mph - N/A   Clear
10:35 PM 29.8 °F 24.9 °F 16.0 °F 56% 29.99 in 10.0 mi WNW 4.6 mph - N/A   Clear
10:55 PM 29.3 °F - 15.6 °F 57% 29.99 in 10.0 mi Calm Calm - N/A   Clear
11:15 PM 29.8 °F - 15.1 °F 54% 29.98 in 10.0 mi Calm Calm - N/A   Clear
11:35 PM 29.3 °F - 15.3 °F 56% 29.98 in 10.0 mi Calm Calm - N/A   Clear
11:55 PM 27.5 °F - 15.8 °F 61% 29.98 in 10.0 mi Calm Calm - N/A   Clear